YOUTHSAT

Satellite information

Favourite Embed

Satellite Type and Status

PAYLOADIN ORBIT

Key statistics

Satellite YOUTHSAT at a glance.

Uptime

5352

Days in orbit

Revolutions

≈ 14.3

Per day

Orbit

SSO

Sun Synchronous Orbit

Inclination

98.3

Latest

Satellite identification and parameters

Extended collection of information and parameters for YOUTHSAT.

Object identification

Identified? True

Debris? False

Object name: YOUTHSAT

International designator: 2011-015B

Object number (NORAD): 37388

Object ID (CCSDS): 37388

Country: INDIA (IND)

Current information (Y/N): Y

RCS size: MEDIUM

Orbital parameters

Period: 101.016 minutes

Inclination: 98.3466 deg

SMA: 7184.883 km

Apoapsis: 817.264 km

Periapsis: 796.232 km

RAAN: 323.7155 deg

Eccentricy: 0.0014636

Argument of periapsis: 167.3234 deg

Mean anomaly: 259.046 deg

Mean motion: 14.25519699 rev/day

Mean motion (dot): 0.00000393 rev/day2

B* drag term: 0.00018351 1/REarth

Two-line elements (TLE)

Creation date: Dec. 12, 2025, 7:06 a.m.

Reference frame: TEME

Reference center: EARTH

Epoch: Dec. 11, 2025, 11:14 p.m. UTC

TLE line 0: 0 YOUTHSAT

TLE line 1: 1 37388U 11015B 25345.96870419 .00000393 00000-0 18351-3 0 9996

TLE line 2: 2 37388 98.3466 323.7155 0014636 167.3234 259.0460 14.25519699760964

Live tracking on map

Real-time ground track for satellite YOUTHSAT.

In-orbit conjunctions

There are no conjunctions computed for YOUTHSAT, at the moment. Check back to stay up to date, as we update our databases every day.

Go to all conjunctions

Associated space launch

YOUTHSAT was lifted into orbit during the mission ‘PSLV | Resourcesat-2’, on board a PSLV space rocket.

The launch took place on April 20, 2011, 4:42 a.m. from Satish Dhawan Space Centre First Launch Pad.

For more information about the launch, click the button.

Launch to space PSLV | Resourcesat-2
PSLV | Resourcesat-2

Agency: N/A

Status: Launch Successful

Launch date: April 20, 2011, 4:42 a.m. UTC

Rocket: PSLV

Launch pad: Satish Dhawan Space Centre First Launch Pad

Location: Satish Dhawan Space Centre, India

...

Latest news about this satellite

There are no fresh news available about this satellite. Check back as we update our databases every day.


Newsletter sign-up

Weekly statistics, charts and insights to help you stay on top of the space industry.